This is the latest recevied weather packets stored in our database for station/object IW1CBG-23. If no packets are shown the sender has not sent any weather packets the latest 10 day(s).
| Time | Temp. | Humidity | Pressure | Rain* | Wind** | Luminosity | Snow |
|---|---|---|---|---|---|---|---|
| 1777742135 | 13.33° C | 53% | 1016.5 hPa | - | - | - | - |
| 1777740898 | 13.33° C | 53% | 1016.5 hPa | - | - | - | - |
| 1777739661 | 13.89° C | 53% | 1016.6 hPa | - | - | - | - |
| 1777738424 | 15° C | 51% | 1016.7 hPa | - | - | - | - |
| 1777737187 | 15.56° C | 50% | 1016.9 hPa | - | - | - | - |
| 1777735950 | 15.56° C | 50% | 1017.1 hPa | - | - | - | - |
| 1777734714 | 15.56° C | 50% | 1017.3 hPa | - | - | - | - |
| 1777733476 | 16.11° C | 49% | 1017.4 hPa | - | - | - | - |
| 1777732239 | 15.56° C | 49% | 1017.7 hPa | - | - | - | - |
| 1777731005 | 16.67° C | 46% | 1018 hPa | - | - | - | - |
| 1777729770 | 17.78° C | 46% | 1018.1 hPa | - | - | - | - |
| 1777728532 | 17.78° C | 44% | 1018.3 hPa | - | - | - | - |
| 1777727296 | 17.22° C | 42% | 1018.4 hPa | - | - | - | - |
| 1777726060 | 19.44° C | 42% | 1018.7 hPa | - | - | - | - |
| 1777724823 | 20.56° C | 43% | 1018.9 hPa | - | - | - | - |
| 1777722346 | 20° C | 43% | 1019.3 hPa | - | - | - | - |
| 1777721108 | 19.44° C | 45% | 1019.6 hPa | - | - | - | - |
| 1777719867 | 18.33° C | 45% | 1019.8 hPa | - | - | - | - |
| 1777717389 | 16.11° C | 48% | 1020.2 hPa | - | - | - | - |
| 1777716151 | 16.11° C | 48% | 1020.4 hPa | - | - | - | - |
| 1777714915 | 16.11° C | 47% | 1020.7 hPa | - | - | - | - |
| 1777713676 | 16.67° C | 50% | 1020.8 hPa | - | - | - | - |
| 1777712435 | 15° C | 54% | 1021.1 hPa | - | - | - | - |
| 1777711197 | 13.89° C | 53% | 1021.2 hPa | - | - | - | - |
| 1777709962 | 13.89° C | 55% | 1021.1 hPa | - | - | - | - |
* Rain since midnight (hover to see other rain measurements)
** Current wind speed in m/s (hover to see current wind gust speed)